This is the latest recevied weather packets stored in our database for station/object N9OJR. If no packets are shown the sender has not sent any weather packets the latest 10 day(s).
| Time | Temp. | Humidity | Pressure | Rain* | Wind** | Luminosity | Snow |
|---|---|---|---|---|---|---|---|
| 1777723101 | 3.89° C | 96% | 1012.4 hPa | 0 mm | - | 83 W/m² | - |
| 1777722798 | 3.89° C | 97% | 1012.4 hPa | 0 mm | - | 111 W/m² | - |
| 1777722494 | 3.89° C | 98% | 1012.4 hPa | 0 mm | - | 83 W/m² | - |
| 1777722191 | 3.33° C | 98% | 1012.4 hPa | 0 mm | - | 75 W/m² | - |
| 1777721888 | 3.33° C | 99% | 1012.3 hPa | 0 mm | - | 72 W/m² | - |
| 1777721586 | 2.78° C | 99% | 1012.3 hPa | 0 mm | - | 68 W/m² | - |
| 1777721284 | 2.78° C | 99% | 1012.3 hPa | 0 mm | - | 67 W/m² | - |
| 1777720981 | 2.78° C | 99% | 1012.2 hPa | 0 mm | - | 46 W/m² | - |
| 1777720678 | 2.78° C | 99% | 1012.2 hPa | 0 mm | - | 36 W/m² | - |
| 1777720376 | 2.78° C | 99% | 1012.1 hPa | 0 mm | - | 35 W/m² | - |
| 1777720073 | 2.22° C | 99% | 1012.1 hPa | 0 mm | - | 33 W/m² | - |
| 1777719771 | 2.22° C | 99% | 1012 hPa | 0 mm | - | 30 W/m² | - |
| 1777719469 | 2.22° C | 99% | 1012.4 hPa | 0 mm | - | 26 W/m² | - |
| 1777719164 | 2.22° C | 99% | 1012.3 hPa | 0 mm | - | 20 W/m² | - |
| 1777718863 | 2.22° C | 99% | 1011.9 hPa | 0 mm | - | 19 W/m² | - |
| 1777718560 | 2.22° C | 99% | 1012.2 hPa | 0 mm | - | 14 W/m² | - |
| 1777718257 | 2.22° C | 99% | 1011.9 hPa | 0 mm | - | 9 W/m² | - |
| 1777717955 | 2.22° C | 99% | 1012 hPa | 0 mm | - | 4 W/m² | - |
| 1777717651 | 1.67° C | 99% | 1012.1 hPa | 0 mm | - | 2 W/m² | - |
| 1777717348 | 1.67° C | 99% | 1012 hPa | 0 mm | - | 1 W/m² | - |
| 1777717046 | 2.22° C | 99% | 1012.1 hPa | 0 mm | - | 0 W/m² | - |
| 1777716744 | 2.22° C | 99% | 1012.2 hPa | 0 mm | - | 0 W/m² | - |
| 1777716442 | 2.22° C | 99% | 1011.9 hPa | 0 mm | - | 0 W/m² | - |
| 1777716140 | 2.22° C | 99% | 1011.9 hPa | 0 mm | - | 0 W/m² | - |
| 1777715838 | 2.22° C | 99% | 1011.8 hPa | 0 mm | - | 0 W/m² | - |
* Rain latest hour (hover to see other rain measurements)
** Current wind speed in m/s (hover to see current wind gust speed)